Flag for Monaco Weather past 2 weeks in Monaco, Monaco

Now
55 °F

Passing clouds.


Feels Like: 54 °F
Forecast: 53 / 65 °F
Wind: 7 mph from Northwest

Location: Nice Airport


UV Index: 3 (Moderate)

Visibility: N/A


Pressure: 29.68 "Hg

Humidity: 77%

Dew point: 48 °F

Location of MonacoLocation

Historic Weather in Monaco

°F

Monaco temperature yesterday

Maximum temperature yesterday: 61 °F (at 10:30 AM)
Minimum temperature yesterday: 50 °F (at 2:00 AM)
Average temperature yesterday: 56 °F

Past Weeks' High & Low Weather Summary

 TemperatureHumidityPressure
High68 °F (Apr 6, 6:00 PM)88% (Apr 7, 8:30 PM)30.15 "Hg (Apr 7, 8:30 PM)
Low50 °F (Apr 17, 3:00 AM)39% (Apr 16, 5:00 PM)29.45 "Hg (Apr 19, 6:00 AM)
Average59 °F70%29.96 "Hg
* Reported Apr 6 1:00 AM — Apr 21 1:30 AM, Monaco, Weather by CustomWeather, © 2014

Note: Actual official high and low records may vary slightly from our data, if they occured in-between our weather recording intervals... More about our weather records

Advertising

Historic Weather Conditions — Data for Previous 24 hours

 ConditionsComfort  
Time TempWeatherWind HumidityBarometerVisibility
1:30 AM
Apr 21
55 °FPassing clouds.8 mph77%29.68 "HgN/A
1:00 AM55 °FPassing clouds.5 mph82%29.68 "HgN/A
12:30 AM55 °FPassing clouds.6 mph82%29.68 "HgN/A
12:00 AM55 °FPassing clouds.5 mph82%29.68 "HgN/A
11:00 PM
Apr 20
57 °FPassing clouds.5 mph77%29.68 "HgN/A
10:30 PM57 °FPassing clouds.2 mph77%29.71 "HgN/A
10:00 PM59 °FPassing clouds.3 mph72%29.71 "HgN/A
9:30 PM59 °FPassing clouds.5 mph72%29.68 "HgN/A
9:00 PM59 °FPartly sunny.5 mph77%29.68 "HgN/A
8:30 PM59 °FPartly sunny.8 mph72%29.68 "HgN/A
8:00 PM59 °FBroken clouds.12 mph72%29.68 "HgN/A
7:30 PM59 °FLight rain. Broken clouds.12 mph68%29.68 "HgN/A
7:00 PM59 °FLight rain. Broken clouds.14 mph63%29.65 "HgN/A
6:30 PM61 °FBroken clouds.8 mph63%29.68 "HgN/A
6:00 PM61 °FBroken clouds.9 mph63%29.68 "HgN/A
5:30 PM61 °FBroken clouds.10 mph63%29.68 "HgN/A
5:00 PM61 °FBroken clouds.6 mph68%29.68 "HgN/A
4:30 PM61 °FBroken clouds.5 mph68%29.68 "HgN/A
4:00 PM61 °FBroken clouds.3 mph63%29.68 "HgN/A
3:30 PM59 °FPartly sunny.3 mph68%29.71 "HgN/A
3:00 PM59 °FPartly sunny.3 mph68%29.71 "HgN/A
2:30 PM59 °FPartly sunny.5 mph68%29.71 "HgN/A
2:00 PM59 °FPartly sunny.3 mph63%29.71 "HgN/A
1:30 PM61 °FPartly sunny.5 mph63%29.71 "HgN/A
1:00 PM61 °FPartly sunny.6 mph63%29.71 "HgN/A
12:30 PM59 °FPartly sunny.9 mph72%29.74 "HgN/A
12:00 PM59 °FPartly sunny.5 mph63%29.71 "HgN/A
11:30 AM59 °FPartly sunny.3 mph63%29.71 "HgN/A
11:00 AM59 °FPartly sunny.7 mph63%29.71 "HgN/A
10:30 AM61 °FSunny.2 mph52%29.71 "Hg10 mi
10:00 AM59 °FSunny.3 mph55%29.71 "Hg10 mi
9:30 AM59 °FSunny.3 mph55%29.71 "Hg10 mi
9:00 AM57 °FSunny.6 mph59%29.68 "Hg10 mi
8:30 AM55 °FPassing clouds.6 mph63%29.68 "HgN/A
8:00 AM52 °FSunny.7 mph67%29.68 "Hg10 mi
7:30 AM52 °FClear.12 mph67%29.71 "Hg10 mi
7:00 AM50 °FClear.9 mph76%29.71 "Hg10 mi
6:30 AM50 °FClear.9 mph76%29.71 "Hg10 mi
6:00 AM50 °FClear.9 mph76%29.71 "Hg10 mi
5:30 AM50 °FClear.10 mph82%29.71 "Hg10 mi
5:00 AM50 °FClear.10 mph76%29.71 "Hg10 mi
4:30 AM50 °FClear.6 mph82%29.74 "Hg10 mi
4:00 AM50 °FClear.9 mph82%29.74 "Hg10 mi
3:30 AM50 °FClear.8 mph82%29.74 "Hg10 mi
3:00 AM52 °FClear.8 mph77%29.74 "Hg10 mi
2:30 AM50 °FPassing clouds.9 mph82%29.74 "HgN/A
2:00 AM50 °FPassing clouds.9 mph82%29.74 "HgN/A
Weather by CustomWeather, © 2014

See weather overview